Location: Centerville
(32.8776°N, 96.6203°W)
Time: 05:14:06
(UTC+00:00)

SL-08 R/B - Pass Details

Date: 17 June 2021
Orbit: 674 x 738 km, 98.5° (Epoch: 29 July)

Event Time Altitude Azimuth Distance (km) Brightness Sun altitude
Rises 09:42:19 0° 159° (SSE) 3,014 6.4 -17.0°
Reaches altitude 10° 09:44:32 10° 156° (SSE) 2,107 5.6 -16.7°
Maximum altitude 09:49:05 64° 75° (ENE) 755 3.7 -16.0°
Drops below altitude 10° 09:53:44 10° 354° (N) 2,149 6.3 -15.3°
Sets 09:56:01 0° 352° (N) 3,079 7.1 -14.9°
